Volver al catálogo

ET-001B

ActivoSSO
NORAD 69941·PAYLOAD·🇺🇸 United States

Lanzado Jul 7, 2026 desde Vandenberg Space Force Base

Loading…

Próximos Pases (próximas 24 horas)

TLE

ActualizadoSource: Space-Track

Época: Sep 13, 2026, 15:59 UTC

1 69941U 26156CA  26256.66652420  .00005481  00000-0  53752-3 0  9994
2 69941  97.7429 156.0168 0006466 294.0068  66.0474 14.92613451 10191

Sigue ET-001B en tiempo real con AllMySat

Download on the App Store